Terminal Aerodrome Forecast
Issued by NWS Cleveland, OH

Home | Current Version | Previous Version | Text Only | Print | Product List | Glossary Off
Versions: 1 2 3 4 5 6 7 8 9 10 11 12 13 14 15 16 17 18 19 20 21 22 23 24

000
FTUS41 KCLE 201700
TAFYNG
TAF
KYNG 201738Z 2018/2118 21012KT P6SM BKN030 OVC050
     FM201900 21015KT P6SM BKN035 BKN250
     FM210600 21012KT P6SM VCTS BKN045CB PROB30 2107/2110 3SM TSRA
      OVC035CB
     FM211200 22010KT P6SM VCSH SCT015 OVC030
     FM211700 26015KT P6SM BKN040=

USA.gov is the U.S. government's official web portal to all federal, state and local government web resources and services.